Location: Bednik
(45.3500°N, 16.3833°E)
Time: 05:11:13
(UTC+00:00)

Resurs 1-4 Rocket - Pass Details

Date: 08 August 2020
Orbit: 799 x 815 km, 98.6° (Epoch: 19 September)

Event Time Altitude Azimuth Distance (km) Brightness Sun altitude
Rises 23:01:54 0° 33° (NNE) 3,328 6.1 -28.9°
Reaches altitude 10° 23:05:39 10° 60° (ENE) 2,387 4.9 -28.9°
Maximum altitude 23:08:04 13° 88° (E) 2,168 4.4 -28.8°
Enters shadow 23:08:21 13° 91° (E) 2,170 4.3 -28.8°
